Regional Weather Roundup
Issued by NWS

Home | Current Version | Previous Version | Text Only | Print | Product List | Glossary Off
Versions: 1 2 3 4 5 6 7 8 9 10 11 12 13 14 15 16 17 18 19 20 21 22 23 24 25 26 27 28 29 30 31 32 33 34 35 36 37 38 39 40 41 42 43 44 45 46 47 48 49 50

000
ASUS44 KMEG 041310
RWRTN
TENNESSEE HOURLY STATE WEATHER ROUNDUP
NATIONAL WEATHER SERVICE MEMPHIS TN
800 AM CDT FRI SEP 04 2015

TNZ002-004-019-021-049-052-054-088>092-041400-
WEST TENNESSEE

CITY           SKY/WX    TMP DP  RH WIND       PRES   REMARKS
MEMPHIS INTL   MOSUNNY   80  71  74 CALM      30.02R
NWS MEMPHIS      N/A     74 N/A N/A MISG        N/A
JACKSON        SUNNY     73  71  93 CALM      30.02S FOG
DYERSBURG      SUNNY     73  72  94 E5        30.04R
UNION CITY     SUNNY    N/A N/A N/A CALM      30.02R
PARIS          SUNNY     73  70  88 NE3       30.04R
LEXINGTON      SUNNY     72  70  94 CALM      30.03R
$$

TNZ008-025-027-028-033-062-065-066-041400-
NORTH MIDDLE TENNESSEE

CITY           SKY/WX    TMP DP  RH WIND       PRES   REMARKS
NASHVILLE      SUNNY     77  68  73 CALM      30.05R
CLARKSVILLE    SUNNY     72  69  90 CALM      30.04R
SMYRNA         SUNNY     72  71  96 CALM      30.06R
COOKEVILLE     SUNNY     70  68  94 CALM      30.06S
CROSSVILLE     SUNNY     73  66  78 CALM      30.11R HAZE
$$

TNZ061-075-076-078-094-096-097-041400-
SOUTH MIDDLE TENNESSEE

CITY           SKY/WX    TMP DP  RH WIND       PRES   REMARKS
FAYETTEVILLE   SUNNY     73  70  88 CALM      30.05S
TULLAHOMA      SUNNY     73  66  78 CALM      30.07R
WINCHESTER     SUNNY     72  70  94 CALM      30.06R
MCMINNVILLE    SUNNY     72  72 100 CALM      30.07R
COLUMBIA       SUNNY     73  73 100 CALM      30.04R
SHELBYVILLE    SUNNY     73  72  94 E3        30.06R
$$

TNZ017-018-042-046-047-041400-
NORTHEAST TENNESSEE

CITY           SKY/WX    TMP DP  RH WIND       PRES   REMARKS
TRI CITIES     SUNNY     69  66  90 CALM      30.10R FOG
ELIZABETHTON   SUNNY     68  64  88 E3        30.10S
$$

TNZ012-013-036-069-073-074-041400-
CENTRAL EAST TENNESSEE

CITY           SKY/WX    TMP DP  RH WIND       PRES   REMARKS
KNOXVILLE      SUNNY     71  70  96 E3        30.05R FOG
OAK RIDGE      SUNNY     73  68  84 CALM      30.07R
GATLINBURG     SUNNY     70  64  83 CALM      30.06S
MORRISTOWN     SUNNY     73  68  83 CALM      30.09R
$$

TNZ083-085-099-041400-
SOUTHEAST TENNESSEE

CITY           SKY/WX    TMP DP  RH WIND       PRES   REMARKS
CHATTANOOGA    MOSUNNY   74  68  81 CALM      30.05R
$$

SKY/WX REPORTED AS FAIR MEANS FEW OR NO CLOUDS BELOW
12 THOUSAND FEET.




USA.gov is the U.S. government's official web portal to all federal, state and local government web resources and services.